Regional Weather Roundup
Issued by NWS

Home | Current Version | Previous Version | Graphics & Text | Print | Product List | Glossary On
Versions: 1 2 3 4 5 6 7 8 9 10 11 12 13 14 15 16 17 18 19 20 21 22 23 24 25 26 27 28 29 30 31 32 33 34 35 36 37 38 39 40 41 42 43 44 45 46 47 48 49 50
000
ASUS43 KIND 301559
RWRIN

WEATHER ROUNDUP FOR INDIANA
NATIONAL WEATHER SERVICE INDIANAPOLIS IN
1200 PM EDT THU OCT 30 2014

NOTE: "FAIR" INDICATES FEW OR NO CLOUDS BELOW 12,000 FEET WITH NO
SIGNIFICANT WEATHER AND/OR OBSTRUCTIONS TO VISIBILITY.

* - STATION DOES NOT REPORT WEATHER SUCH AS PRECIPITATION OR FOG.

+ - STATION NOT QUALITY CONTROLLED BY THE NATIONAL WEATHER SERVICE.
    USE DATA WITH CAUTION...ESPECIALLY DEWPOINT AND RELATIVE
    HUMIDITY OBSERVATIONS.

INZ001>003-010>013-019-020-301700-
NORTHWEST INDIANA

CITY           SKY/WX    TMP DP  RH WIND       PRES   REMARKS
GARY /AIRPORT/ PTSUNNY   48  32  53 SW8       30.14F
VALPARAISO     NOT AVBL

$$

LMZ046-743>745-301700-
SOUTHERN LAKE MICHIGAN

STATION/POSITION TIME  TEMP WIND        PRES
                       AIR  DIR/SP/G
                 (UTC) (F)  (DEG/KT/KT) (MB)
MICHIGAN CITY    1500   46  190/ 10/ 12   N/A

$$

INZ004-005-014>016-021>024-301700-
NORTH CENTRAL INDIANA

CITY           SKY/WX    TMP DP  RH WIND       PRES   REMARKS
ELKHART        CLOUDY    48  32  53 W6        30.14F
GOSHEN         CLOUDY    47  35  63 W7        30.14F
SOUTH BEND     PTSUNNY   50  33  52 SW10      30.15S

$$

INZ006>009-017-018-025>027-301700-
NORTHEAST INDIANA

CITY           SKY/WX    TMP DP  RH WIND       PRES   REMARKS
ANGOLA *+      CLOUDY    45  37  76 SW5       30.14S
FORT WAYNE     CLOUDY    46  37  71 W6        30.17R

$$

INZ028-029-035-036-043>045-051>053-301700-
WEST CENTRAL INDIANA

CITY           SKY/WX    TMP DP  RH WIND       PRES   REMARKS
GREENCASTLE +  SUNNY     46  32  57 SE7       30.16S
LAFAYETTE      MOSUNNY   47  35  63 VRB3      30.15F
TERRE HAUTE    SUNNY     49  34  56 SE9       30.16F

$$

INZ030>032-037>040-046>048-054>057-064-065-301700-
CENTRAL INDIANA

CITY           SKY/WX    TMP DP  RH WIND       PRES   REMARKS
ANDERSON       PTSUNNY   46  30  53 CALM      30.17S
COLUMBUS       SUNNY     48  36  61 CALM      30.17S
INDIANAPOLIS   MOSUNNY   48  32  53 SE6       30.16F
-EAGLE CREEK   SUNNY     49  32  52 S6        30.15F
KOKOMO *+      PTSUNNY   48  32  53 CALM      30.16F
MT COMFORT *+  MOSUNNY   48  23  37 CALM      30.16S
SHELBYVILLE    MOSUNNY   51  33  50 CALM      30.16S

$$

INZ033-034-041-042-049-050-058-059-301700-
EAST CENTRAL INDIANA

CITY           SKY/WX    TMP DP  RH WIND       PRES   REMARKS
MUNCIE         CLOUDY    47  32  56 CALM      30.16S

$$

INZ060-061-067>069-081>083-085>088-301700-
SOUTHWEST INDIANA

CITY           SKY/WX    TMP DP  RH WIND       PRES   REMARKS
EVANSVILLE     SUNNY     50  37  61 CALM      30.18F
HUNTINGBURG *+ SUNNY     48  37  66 S3        30.17F

$$

INZ062-063-066-070>080-084-089>092-301700-
SOUTH CENTRAL AND SOUTHEAST INDIANA

CITY           SKY/WX    TMP DP  RH WIND       PRES   REMARKS
BLOOMINGTON    SUNNY     48  33  56 S3        30.16F

$$




USA.gov is the U.S. government's official web portal to all federal, state and local government web resources and services.